Shanghai Hongqiao, China

12:03 PM CST on April 29, 2017 (GMT +0800)
Hongqiao

Weather History for ZSSS - December, 2013

Change the Weather History Date:

Monday, December 23, 2013

  Actual Average Record
Temperature  
Mean Temperature 40 °F -  
Max Temperature 48 °F 47 °F 62 °F (2010)
Min Temperature 32 °F 34 °F 21 °F (1999)
Degree Days  
Heating Degree Days 25    
Moisture  
Dew Point 28 °F    
Average Humidity 65    
Maximum Humidity 87    
Minimum Humidity 37    
Precipitation  
Precipitation 0.00 in 0.05 in - ()
Sea Level Pressure  
Sea Level Pressure 30.43 in    
Wind  
Wind Speed 5 mph ()    
Max Wind Speed 11 mph    
Max Gust Speed -    
Visibility 4.1 miles    
Events      
Averages and records for this station are not official NWS values.
T = Trace of Precipitation, MM = Missing Value Source: Averaged Metar Reports

Daily Weather History Graph

Daily Weather History Graph

Search for Another Location

Airport or City:

Trip Planner

Search our weather history database for the weather conditions in past years. The results will help you decide how hot, cold, wet, or windy it might be!

Date:

Astronomy

Dec. 23, 2013 Rise Set
Actual Time 6:50 AM CST 4:57 PM CST
Civil Twilight 6:23 AM CST 5:24 PM CST
Nautical Twilight 5:52 AM CST 5:54 PM CST
Astronomical Twilight 5:23 AM CST 6:23 PM CST
Moon 10:13 PM CST (12/23) 10:16 AM CST (12/23)
Length of Visible Light 11h 00m
Length of Day
10h 07m
Waning Gibbous, 73% of the Moon is Illuminated
Dec 23
Waning Gibbous
Dec 25
Last Quarter
Jan 1
New
Jan 8
First Quarter
Jan 16
Full

Hourly Weather History & Observations

Time (CST) Temp. Windchill Dew Point Humidity Pressure Visibility Wind Dir Wind Speed Gust Speed Precip Events Conditions
12:00 AM 35.6 °F 31.8 °F 26.6 °F 70% 30.42 in - North 4.5 mph - N/A   Clear
12:30 AM 35.6 °F 30.0 °F 28.4 °F 75% 30.42 in - North 6.7 mph - N/A   Clear
1:00 AM 33.8 °F 27.9 °F 28.4 °F 81% 30.42 in - North 6.7 mph - N/A   Clear
1:30 AM 35.6 °F 31.8 °F 28.4 °F 75% 30.42 in - NNW 4.5 mph - N/A   Clear
2:00 AM 35.6 °F 31.8 °F 28.4 °F 75% 30.42 in - NNW 4.5 mph - N/A   Clear
2:30 AM 35.6 °F - 28.4 °F 75% 30.42 in - Calm Calm - N/A   Clear
3:00 AM 33.8 °F - 28.4 °F 81% 30.42 in 5.0 mi SW 2.2 mph - N/A   Unknown
3:30 AM 33.8 °F - 28.4 °F 81% 30.42 in 3.7 mi NW 2.2 mph - N/A   Unknown
4:00 AM 32.0 °F - 28.4 °F 87% 30.42 in 3.7 mi NNE 2.2 mph - N/A   Unknown
4:30 AM 32.0 °F - 28.4 °F 87% 30.42 in 3.7 mi Calm Calm - N/A   Partly Cloudy
5:00 AM 32.0 °F - 28.4 °F 87% 30.42 in 3.7 mi Calm Calm - N/A   Partly Cloudy
5:30 AM 32.0 °F - 28.4 °F 87% 30.42 in 3.7 mi Calm Calm - N/A   Unknown
6:00 AM 32.0 °F - 28.4 °F 87% 30.45 in 3.7 mi Calm Calm - N/A   Unknown
6:30 AM 33.8 °F - 30.2 °F 87% 30.45 in 3.1 mi Calm Calm - N/A   Mist
7:00 AM 33.8 °F 29.7 °F 30.2 °F 87% 30.45 in 1.9 mi NNE 4.5 mph - N/A   Mist
7:30 AM 33.8 °F 29.7 °F 28.4 °F 81% 30.42 in 1.9 mi North 4.5 mph - N/A   Mist
8:00 AM 35.6 °F 30.0 °F 32.0 °F 87% 30.42 in 1.9 mi North 6.7 mph - N/A   Mist
8:30 AM 39.2 °F 33.1 °F 33.8 °F 81% 30.42 in 3.1 mi North 8.9 mph - N/A   Mist
9:00 AM 41.0 °F 36.5 °F 33.8 °F 76% 30.42 in 4.3 mi North 6.7 mph - N/A   Unknown
9:30 AM 42.8 °F 38.7 °F 30.2 °F 61% 30.42 in 4.3 mi NNE 6.7 mph - N/A   Unknown
10:00 AM 42.8 °F 37.6 °F 30.2 °F 61% 30.45 in 4.3 mi NNE 8.9 mph - N/A   Unknown
10:30 AM 44.6 °F 40.8 °F 28.4 °F 53% 30.45 in 6.2 mi North 6.7 mph - N/A   Scattered Clouds
11:00 AM 46.4 °F 42.0 °F 28.4 °F 50% 30.45 in 6.2 mi NNE 8.9 mph - N/A   Mostly Cloudy
11:30 AM 44.6 °F 38.9 °F 26.6 °F 49% 30.42 in 6.2 mi North 11.2 mph - N/A   Scattered Clouds
12:00 PM 46.4 °F 42.0 °F 24.8 °F 43% 30.42 in 6.2 mi NNW 8.9 mph - N/A   Scattered Clouds
12:30 PM 48.2 °F - 24.8 °F 40% 30.42 in - NNW 6.7 mph - N/A   Clear
1:00 PM 48.2 °F - 23.0 °F 37% 30.39 in - North 11.2 mph - N/A   Clear
1:30 PM 48.2 °F - 23.0 °F 37% 30.39 in - North 6.7 mph - N/A   Clear
2:00 PM 46.4 °F 42.0 °F 26.6 °F 46% 30.39 in - North 8.9 mph - N/A   Clear
2:30 PM 46.4 °F 42.0 °F 24.8 °F 43% 30.39 in - North 8.9 mph - N/A   Clear
3:00 PM 46.4 °F 42.0 °F 23.0 °F 40% 30.39 in - North 8.9 mph - N/A   Clear
3:30 PM 46.4 °F 42.0 °F 24.8 °F 43% 30.39 in - North 8.9 mph - N/A   Clear
4:00 PM 44.6 °F 39.8 °F 24.8 °F 46% 30.39 in - North 8.9 mph - N/A   Clear
4:30 PM 44.6 °F 39.8 °F 24.8 °F 46% 30.39 in - North 8.9 mph - N/A   Clear
5:00 PM 42.8 °F 37.6 °F 24.8 °F 49% 30.42 in - North 8.9 mph - N/A   Clear
5:30 PM 41.0 °F 35.4 °F 24.8 °F 53% 30.42 in - North 8.9 mph - N/A   Clear
6:00 PM 41.0 °F 36.5 °F 26.6 °F 57% 30.42 in - North 6.7 mph - N/A   Clear
6:30 PM 41.0 °F 36.5 °F 26.6 °F 57% 30.45 in - North 6.7 mph - N/A   Clear
7:00 PM 41.0 °F 35.4 °F 28.4 °F 61% 30.45 in - NNE 8.9 mph - N/A   Clear
7:30 PM 41.0 °F 35.4 °F 28.4 °F 61% 30.45 in - NNE 8.9 mph - N/A   Clear
8:00 PM 41.0 °F 35.4 °F 28.4 °F 61% 30.45 in - NNE 8.9 mph - N/A   Clear
8:30 PM 39.2 °F 33.1 °F 28.4 °F 65% 30.45 in - NNE 8.9 mph - N/A   Clear
9:00 PM 39.2 °F 33.1 °F 28.4 °F 65% 30.45 in - NNE 8.9 mph - N/A   Clear
9:30 PM 37.4 °F 32.2 °F 28.4 °F 70% 30.45 in 4.3 mi North 6.7 mph - N/A   Unknown
10:00 PM 35.6 °F 30.0 °F 28.4 °F 75% 30.45 in 4.3 mi North 6.7 mph - N/A   Unknown
10:30 PM 37.4 °F 32.2 °F 28.4 °F 70% 30.48 in 4.3 mi North 6.7 mph - N/A   Unknown
11:00 PM 37.4 °F 33.9 °F 26.6 °F 65% 30.48 in 4.3 mi North 4.5 mph - N/A   Unknown
11:30 PM 37.4 °F 33.9 °F 26.6 °F 65% 30.48 in 4.3 mi North 4.5 mph - N/A   Unknown